Year,Month,Day,Hour,Minute,Value (Times are PST for temperature in C)
2017,12,17,00,00,5.60
2017,12,17,00,01,5.60
2017,12,17,00,02,5.60
2017,12,17,00,03,5.60
2017,12,17,00,04,5.60
2017,12,17,00,05,5.70
2017,12,17,00,06,5.60
2017,12,17,00,07,5.60
2017,12,17,00,08,5.70
2017,12,17,00,09,5.70
2017,12,17,00,10,5.70
2017,12,17,00,11,5.70
2017,12,17,00,12,5.70
2017,12,17,00,13,5.70
2017,12,17,00,14,5.70
2017,12,17,00,15,5.70
2017,12,17,00,16,5.70
2017,12,17,00,17,5.70
2017,12,17,00,18,5.70
2017,12,17,00,19,5.70
2017,12,17,00,20,5.70
2017,12,17,00,21,5.70
2017,12,17,00,22,5.70
2017,12,17,00,23,5.70
2017,12,17,00,24,5.70
2017,12,17,00,25,5.70
2017,12,17,00,26,5.70
2017,12,17,00,27,5.70
2017,12,17,00,28,5.70
2017,12,17,00,29,5.70
2017,12,17,00,30,5.70
2017,12,17,00,31,5.70
2017,12,17,00,32,5.70
2017,12,17,00,33,5.70
2017,12,17,00,34,5.70
2017,12,17,00,35,5.70
2017,12,17,00,36,5.70
2017,12,17,00,37,5.70
2017,12,17,00,38,5.70
2017,12,17,00,39,5.70
2017,12,17,00,40,5.70
2017,12,17,00,41,5.70
2017,12,17,00,42,5.70
2017,12,17,00,43,5.70
2017,12,17,00,44,5.70
2017,12,17,00,45,5.70
2017,12,17,00,46,5.70
2017,12,17,00,47,5.70
2017,12,17,00,48,5.70
2017,12,17,00,49,5.70
2017,12,17,00,50,5.70
2017,12,17,00,51,5.70
2017,12,17,00,52,5.70
2017,12,17,00,53,5.70
2017,12,17,00,54,5.70
2017,12,17,00,55,5.70
2017,12,17,00,56,5.70
2017,12,17,00,57,5.70
2017,12,17,00,58,5.70
2017,12,17,00,59,5.70
2017,12,17,01,00,5.70
2017,12,17,01,01,5.70
2017,12,17,01,02,5.70
2017,12,17,01,03,5.70
2017,12,17,01,04,5.70
2017,12,17,01,05,5.70
2017,12,17,01,06,5.70
2017,12,17,01,07,5.70
2017,12,17,01,08,5.70
2017,12,17,01,09,5.70
2017,12,17,01,10,5.70
2017,12,17,01,11,5.80
2017,12,17,01,12,5.80
2017,12,17,01,13,5.80
2017,12,17,01,14,5.80
2017,12,17,01,15,5.80
2017,12,17,01,16,5.80
2017,12,17,01,17,5.80
2017,12,17,01,18,5.80
2017,12,17,01,19,5.80
2017,12,17,01,20,5.80
2017,12,17,01,21,5.80
2017,12,17,01,22,5.80
2017,12,17,01,23,5.80
2017,12,17,01,24,5.80
2017,12,17,01,25,5.80
2017,12,17,01,26,5.80
2017,12,17,01,27,5.80
2017,12,17,01,28,5.80
2017,12,17,01,29,5.80
2017,12,17,01,30,5.80
2017,12,17,01,31,5.80
2017,12,17,01,32,5.80
2017,12,17,01,33,5.80
2017,12,17,01,34,5.80
2017,12,17,01,35,5.80
2017,12,17,01,36,5.80
2017,12,17,01,37,5.80
2017,12,17,01,38,5.80
2017,12,17,01,39,5.90
2017,12,17,01,40,5.90
2017,12,17,01,41,5.90
2017,12,17,01,42,5.80
2017,12,17,01,43,5.80
2017,12,17,01,44,5.80
2017,12,17,01,45,5.80
2017,12,17,01,46,5.80
2017,12,17,01,47,5.80
2017,12,17,01,48,5.80
2017,12,17,01,49,5.80
2017,12,17,01,50,5.80
2017,12,17,01,51,5.80
2017,12,17,01,52,5.80
2017,12,17,01,53,5.80
2017,12,17,01,54,5.80
2017,12,17,01,55,5.80
2017,12,17,01,56,5.90
2017,12,17,01,57,5.90
2017,12,17,01,58,5.90
2017,12,17,01,59,5.90
2017,12,17,02,00,5.90
2017,12,17,02,01,5.90
2017,12,17,02,02,5.90
2017,12,17,02,03,5.90
2017,12,17,02,04,5.90
2017,12,17,02,05,5.90
2017,12,17,02,06,5.90
2017,12,17,02,07,5.90
2017,12,17,02,08,5.90
2017,12,17,02,09,5.90
2017,12,17,02,10,5.90
2017,12,17,02,11,5.90
2017,12,17,02,12,5.90
2017,12,17,02,13,5.90
2017,12,17,02,14,5.90
2017,12,17,02,15,5.90
2017,12,17,02,16,5.90
2017,12,17,02,17,5.90
2017,12,17,02,18,5.90
2017,12,17,02,19,5.90
2017,12,17,02,20,5.90
2017,12,17,02,21,5.90
2017,12,17,02,22,5.90
2017,12,17,02,23,5.90
2017,12,17,02,24,5.90
2017,12,17,02,25,5.90
2017,12,17,02,26,5.90
2017,12,17,02,27,5.90
2017,12,17,02,28,5.90
2017,12,17,02,29,5.90
2017,12,17,02,30,5.90
2017,12,17,02,31,5.90
2017,12,17,02,32,5.90
2017,12,17,02,33,5.90
2017,12,17,02,34,5.90
2017,12,17,02,35,5.90
2017,12,17,02,36,5.90
2017,12,17,02,37,5.90
2017,12,17,02,38,5.90
2017,12,17,02,39,5.90
2017,12,17,02,40,5.90
2017,12,17,02,41,5.90
2017,12,17,02,42,5.90
2017,12,17,02,43,5.90
2017,12,17,02,44,5.90
2017,12,17,02,45,5.90
2017,12,17,02,46,5.90
2017,12,17,02,47,5.90
2017,12,17,02,48,5.90
2017,12,17,02,49,5.90
2017,12,17,02,50,6.00
2017,12,17,02,51,6.00
2017,12,17,02,52,6.00
2017,12,17,02,53,6.00
2017,12,17,02,54,6.00
2017,12,17,02,55,6.00
2017,12,17,02,56,6.00
2017,12,17,02,57,6.00
2017,12,17,02,58,6.00
2017,12,17,02,59,6.00
2017,12,17,03,00,6.00
2017,12,17,03,01,6.00
2017,12,17,03,02,6.00
2017,12,17,03,03,6.00
2017,12,17,03,04,6.00
2017,12,17,03,05,6.00
2017,12,17,03,06,6.00
2017,12,17,03,07,6.00
2017,12,17,03,08,6.00
2017,12,17,03,09,6.00
2017,12,17,03,10,6.00
2017,12,17,03,11,6.00
2017,12,17,03,12,6.00
2017,12,17,03,13,6.00
2017,12,17,03,14,6.00
2017,12,17,03,15,6.00
2017,12,17,03,16,6.00
2017,12,17,03,17,6.00
2017,12,17,03,18,6.00
2017,12,17,03,19,6.10
2017,12,17,03,20,6.10
2017,12,17,03,21,6.10
2017,12,17,03,22,6.10
2017,12,17,03,23,6.10
2017,12,17,03,24,6.10
2017,12,17,03,25,6.10
2017,12,17,03,26,6.10
2017,12,17,03,27,6.10
2017,12,17,03,28,6.10
2017,12,17,03,29,6.10
2017,12,17,03,30,6.10
2017,12,17,03,31,6.10
2017,12,17,03,32,6.10
2017,12,17,03,33,6.10
2017,12,17,03,34,6.10
2017,12,17,03,35,6.10
2017,12,17,03,36,6.10
2017,12,17,03,37,6.10
2017,12,17,03,38,6.10
2017,12,17,03,39,6.10
2017,12,17,03,40,6.10
2017,12,17,03,41,6.10
2017,12,17,03,42,6.10
2017,12,17,03,43,6.10
2017,12,17,03,44,6.10
2017,12,17,03,45,6.10
2017,12,17,03,46,6.10
2017,12,17,03,47,6.10
2017,12,17,03,48,6.10
2017,12,17,03,49,6.10
2017,12,17,03,50,6.10
2017,12,17,03,51,6.10
2017,12,17,03,52,6.10
2017,12,17,03,53,6.10
2017,12,17,03,54,6.10
2017,12,17,03,55,6.10
2017,12,17,03,56,6.10
2017,12,17,03,57,6.10
2017,12,17,03,58,6.10
2017,12,17,03,59,6.10
2017,12,17,04,00,6.10
2017,12,17,04,01,6.10
2017,12,17,04,02,6.10
2017,12,17,04,03,6.10
2017,12,17,04,04,6.10
2017,12,17,04,05,6.10
2017,12,17,04,06,6.10
2017,12,17,04,07,6.10
2017,12,17,04,08,6.10
2017,12,17,04,09,6.10
2017,12,17,04,10,6.10
2017,12,17,04,11,6.10
2017,12,17,04,12,6.10
2017,12,17,04,13,6.10
2017,12,17,04,14,6.10
2017,12,17,04,15,6.10
2017,12,17,04,16,6.10
2017,12,17,04,17,6.10
2017,12,17,04,18,6.10
2017,12,17,04,19,6.10
2017,12,17,04,20,6.10
2017,12,17,04,21,6.10
2017,12,17,04,24,6.10
2017,12,17,04,25,6.10
2017,12,17,04,26,6.10
2017,12,17,05,56,-24.20
2017,12,17,06,39,-22.90
2017,12,17,06,40,-22.90
2017,12,17,07,03,-21.80
2017,12,17,07,04,-22.30
2017,12,17,07,05,-22.30
2017,12,17,07,14,-23.30
2017,12,17,07,15,-24.30
2017,12,17,07,16,-24.60
2017,12,17,08,02,-23.30
2017,12,17,08,03,-22.60
2017,12,17,09,02,-23.10
2017,12,17,09,04,-22.90
2017,12,17,09,05,-23.70
2017,12,17,09,06,-23.80
2017,12,17,09,07,-23.90
2017,12,17,09,46,-24.20
2017,12,17,09,47,-23.30
2017,12,17,09,51,-24.90
2017,12,17,10,13,-23.80
2017,12,17,10,14,-24.60
2017,12,17,10,15,-24.60
2017,12,17,10,16,-24.60
2017,12,17,10,50,7.60
2017,12,17,10,51,7.60
2017,12,17,10,52,7.50
2017,12,17,10,53,7.50
2017,12,17,10,54,7.60
2017,12,17,10,55,7.60
2017,12,17,10,56,7.60
2017,12,17,10,57,7.60
2017,12,17,10,58,7.60
2017,12,17,10,59,7.60
2017,12,17,11,00,7.60
2017,12,17,11,01,7.60
2017,12,17,11,02,7.50
2017,12,17,11,03,7.50
2017,12,17,11,04,7.50
2017,12,17,11,05,7.50
2017,12,17,11,06,7.50
2017,12,17,11,07,7.60
2017,12,17,11,08,7.60
2017,12,17,11,09,7.70
2017,12,17,11,10,7.70
2017,12,17,11,11,7.70
2017,12,17,11,12,7.70
2017,12,17,11,13,7.70
2017,12,17,11,14,7.70
2017,12,17,11,15,7.70
2017,12,17,11,16,7.70
2017,12,17,11,17,7.70
2017,12,17,11,18,7.70
2017,12,17,11,19,7.70
2017,12,17,11,20,7.70
2017,12,17,11,21,7.70
2017,12,17,11,22,7.70
2017,12,17,11,23,7.70
2017,12,17,11,24,7.70
2017,12,17,11,25,7.70
2017,12,17,11,26,7.70
2017,12,17,11,27,7.70
2017,12,17,11,28,7.70
2017,12,17,11,29,7.60
2017,12,17,11,30,7.60
2017,12,17,11,31,7.60
2017,12,17,11,32,7.60
2017,12,17,11,33,7.60
2017,12,17,11,34,7.60
2017,12,17,11,35,7.60
2017,12,17,11,36,7.50
2017,12,17,11,37,7.50
2017,12,17,11,38,7.50
2017,12,17,11,39,7.50
2017,12,17,11,40,7.60
2017,12,17,11,41,7.60
2017,12,17,11,42,7.60
2017,12,17,11,43,7.60
2017,12,17,11,44,7.60
2017,12,17,11,45,7.60
2017,12,17,11,46,7.60
2017,12,17,11,47,7.60
2017,12,17,11,48,7.60
2017,12,17,11,49,7.60
2017,12,17,11,50,7.60
2017,12,17,11,51,7.60
2017,12,17,11,52,7.60
2017,12,17,11,53,7.60
2017,12,17,11,54,7.60
2017,12,17,11,55,7.60
2017,12,17,11,56,7.60
2017,12,17,11,57,7.60
2017,12,17,11,58,7.60
2017,12,17,11,59,7.70
2017,12,17,12,00,7.70
2017,12,17,12,01,7.70
2017,12,17,12,02,7.70
2017,12,17,12,03,7.70
2017,12,17,12,04,7.70
2017,12,17,12,05,7.70
2017,12,17,12,06,7.70
2017,12,17,12,07,7.80
2017,12,17,12,08,7.80
2017,12,17,12,09,7.80
2017,12,17,12,10,7.80
2017,12,17,12,11,7.90
2017,12,17,12,12,7.90
2017,12,17,12,13,7.90
2017,12,17,12,14,7.90
2017,12,17,12,15,7.90
2017,12,17,12,16,7.90
2017,12,17,12,17,7.90
2017,12,17,12,18,7.90
2017,12,17,12,19,7.90
2017,12,17,12,20,7.90
2017,12,17,12,21,7.90
2017,12,17,12,22,7.90
2017,12,17,12,23,7.90
2017,12,17,12,24,7.90
2017,12,17,12,25,7.90
2017,12,17,12,26,7.90
2017,12,17,12,27,7.90
2017,12,17,12,28,8.00
2017,12,17,12,29,8.00
2017,12,17,12,30,8.00
2017,12,17,12,31,8.00
2017,12,17,12,32,8.10
2017,12,17,12,33,8.10
2017,12,17,12,34,8.10
2017,12,17,12,35,8.10
2017,12,17,12,36,8.20
2017,12,17,12,37,8.20
2017,12,17,12,38,8.20
2017,12,17,12,39,8.20
2017,12,17,12,40,8.20
2017,12,17,12,41,8.20
2017,12,17,12,42,8.20
2017,12,17,12,43,8.20
2017,12,17,12,44,8.20
2017,12,17,12,45,8.20
2017,12,17,12,46,8.20
2017,12,17,12,47,8.20
2017,12,17,12,48,8.20
2017,12,17,12,49,8.20
2017,12,17,12,50,8.20
2017,12,17,12,51,8.20
2017,12,17,12,52,8.20
2017,12,17,12,53,8.20
2017,12,17,12,54,8.20
2017,12,17,12,55,8.20
2017,12,17,12,56,8.20
2017,12,17,12,57,8.20
2017,12,17,12,58,8.20
2017,12,17,12,59,8.20
2017,12,17,13,00,8.20
2017,12,17,13,01,8.20
2017,12,17,13,02,8.20
2017,12,17,13,03,8.20
2017,12,17,13,04,8.20
2017,12,17,13,05,8.20
2017,12,17,13,06,8.10
2017,12,17,13,07,8.10
2017,12,17,13,08,8.10
2017,12,17,13,09,8.10
2017,12,17,13,10,8.10
2017,12,17,13,11,8.10
2017,12,17,13,12,8.10
2017,12,17,13,13,8.10
2017,12,17,13,14,8.10
2017,12,17,13,15,8.10
2017,12,17,13,16,8.10
2017,12,17,13,17,8.10
2017,12,17,13,18,8.20
2017,12,17,13,19,8.20
2017,12,17,13,20,8.20
2017,12,17,13,21,8.20
2017,12,17,13,22,8.20
2017,12,17,13,23,8.20
2017,12,17,13,24,8.20
2017,12,17,13,25,8.20
2017,12,17,13,26,8.20
2017,12,17,13,27,8.20
2017,12,17,13,28,8.20
2017,12,17,13,29,8.20
2017,12,17,13,30,8.20
2017,12,17,13,31,8.20
2017,12,17,13,32,8.20
2017,12,17,13,33,8.20
2017,12,17,13,34,8.20
2017,12,17,13,35,8.20
2017,12,17,13,36,8.20
2017,12,17,13,37,8.20
2017,12,17,13,38,8.20
2017,12,17,13,39,8.20
2017,12,17,13,40,8.20
2017,12,17,13,41,8.20
2017,12,17,13,42,8.20
2017,12,17,13,43,8.20
2017,12,17,13,44,8.20
2017,12,17,13,45,8.30
2017,12,17,13,46,8.30
2017,12,17,13,47,8.30
2017,12,17,13,48,8.30
2017,12,17,13,49,8.30
2017,12,17,13,50,8.30
2017,12,17,13,51,8.30
2017,12,17,13,52,8.30
2017,12,17,13,53,8.30
2017,12,17,13,54,8.30
2017,12,17,13,55,8.30
2017,12,17,13,56,8.30
2017,12,17,13,57,8.30
2017,12,17,13,58,8.30
2017,12,17,13,59,8.40
2017,12,17,14,00,8.40
2017,12,17,14,01,8.40
2017,12,17,14,02,8.40
2017,12,17,14,03,8.40
2017,12,17,14,04,8.40
2017,12,17,14,05,8.40
2017,12,17,14,06,8.40
2017,12,17,14,07,8.40
2017,12,17,14,08,8.40
2017,12,17,14,09,8.40
2017,12,17,14,10,8.40
2017,12,17,14,11,8.40
2017,12,17,14,12,8.40
2017,12,17,14,13,8.40
2017,12,17,14,14,8.40
2017,12,17,14,15,8.40
2017,12,17,14,16,8.40
2017,12,17,14,17,8.40
2017,12,17,14,18,8.40
2017,12,17,14,19,8.40
2017,12,17,14,20,8.40
2017,12,17,14,21,8.40
2017,12,17,14,22,8.40
2017,12,17,14,23,8.40
2017,12,17,14,24,8.40
2017,12,17,14,25,8.40
2017,12,17,14,26,8.40
2017,12,17,14,27,8.40
2017,12,17,14,28,8.40
2017,12,17,14,29,8.40
2017,12,17,14,30,8.40
2017,12,17,14,31,8.40
2017,12,17,14,32,8.40
2017,12,17,14,33,8.50
2017,12,17,14,34,8.50
2017,12,17,14,35,8.50
2017,12,17,14,36,8.50
2017,12,17,14,37,8.50
2017,12,17,14,38,8.50
2017,12,17,14,39,8.50
2017,12,17,14,40,8.50
2017,12,17,14,41,8.60
2017,12,17,14,42,8.60
2017,12,17,14,43,8.60
2017,12,17,14,44,8.60
2017,12,17,14,45,8.60
2017,12,17,14,46,8.60
2017,12,17,14,47,8.60
2017,12,17,14,48,8.60
2017,12,17,14,49,8.60
2017,12,17,14,50,8.60
2017,12,17,14,51,8.60
2017,12,17,14,52,8.60
2017,12,17,14,53,8.70
2017,12,17,14,54,8.70
2017,12,17,14,55,8.60
2017,12,17,14,56,8.60
2017,12,17,14,57,8.60
2017,12,17,14,58,8.60
2017,12,17,14,59,8.70
2017,12,17,15,00,8.70
2017,12,17,15,01,8.70
2017,12,17,15,02,8.70
2017,12,17,15,03,8.70
2017,12,17,15,04,8.70
2017,12,17,15,05,8.70
2017,12,17,15,06,8.60
2017,12,17,15,07,8.70
2017,12,17,15,08,8.70
2017,12,17,15,09,8.70
2017,12,17,15,10,8.70
2017,12,17,15,11,8.70
2017,12,17,15,12,8.70
2017,12,17,15,13,8.70
2017,12,17,15,14,8.70
2017,12,17,15,15,8.70
2017,12,17,15,16,8.70
2017,12,17,15,17,8.70
2017,12,17,15,18,8.70
2017,12,17,15,19,8.70
2017,12,17,15,20,8.70
2017,12,17,15,21,8.70
2017,12,17,15,22,8.70
2017,12,17,15,23,8.70
2017,12,17,15,24,8.70
2017,12,17,15,25,8.70
2017,12,17,15,26,8.70
2017,12,17,15,27,8.70
2017,12,17,15,28,8.70
2017,12,17,15,29,8.70
2017,12,17,15,30,8.70
2017,12,17,15,31,8.70
2017,12,17,15,32,8.70
2017,12,17,15,33,8.70
2017,12,17,15,34,8.70
2017,12,17,15,35,8.70
2017,12,17,15,36,8.70
2017,12,17,15,37,8.70
2017,12,17,15,38,8.70
2017,12,17,15,39,8.70
2017,12,17,15,40,8.70
2017,12,17,15,41,8.70
2017,12,17,15,42,8.70
2017,12,17,15,43,8.70
2017,12,17,15,44,8.70
2017,12,17,15,45,8.70
2017,12,17,15,46,8.70
2017,12,17,15,47,8.70
2017,12,17,15,48,8.70
2017,12,17,15,49,8.70
2017,12,17,15,50,8.70
2017,12,17,15,51,8.70
2017,12,17,15,52,8.70
2017,12,17,15,53,8.70
2017,12,17,15,54,8.70
2017,12,17,15,55,8.60
2017,12,17,15,56,8.60
2017,12,17,15,57,8.60
2017,12,17,15,58,8.60
2017,12,17,15,59,8.60
2017,12,17,16,00,8.60
2017,12,17,16,01,8.60
2017,12,17,16,02,8.60
2017,12,17,16,03,8.60
2017,12,17,16,04,8.60
2017,12,17,16,05,8.60
2017,12,17,16,06,8.50
2017,12,17,16,07,8.50
2017,12,17,16,08,8.50
2017,12,17,16,09,8.50
2017,12,17,16,10,8.50
2017,12,17,16,11,8.50
2017,12,17,16,12,8.50
2017,12,17,16,13,8.50
2017,12,17,16,14,8.50
2017,12,17,16,15,8.50
2017,12,17,16,16,8.50
2017,12,17,16,17,8.50
2017,12,17,16,18,8.50
2017,12,17,16,19,8.50
2017,12,17,16,20,8.50
2017,12,17,16,21,8.50
2017,12,17,16,22,8.40
2017,12,17,16,23,8.40
2017,12,17,16,24,8.40
2017,12,17,16,25,8.40
2017,12,17,16,26,8.40
2017,12,17,16,27,8.40
2017,12,17,16,28,8.40
2017,12,17,16,29,8.40
2017,12,17,16,30,8.40
2017,12,17,16,31,8.40
2017,12,17,16,32,8.40
2017,12,17,16,33,8.40
2017,12,17,16,34,8.40
2017,12,17,16,35,8.40
2017,12,17,16,36,8.40
2017,12,17,16,37,8.40
2017,12,17,16,38,8.40
2017,12,17,16,39,8.40
2017,12,17,16,40,8.40
2017,12,17,16,41,8.40
2017,12,17,16,42,8.30
2017,12,17,16,43,8.30
2017,12,17,16,44,8.30
2017,12,17,16,45,8.30
2017,12,17,16,46,8.30
2017,12,17,16,47,8.30
2017,12,17,16,48,8.30
2017,12,17,16,49,8.30
2017,12,17,16,50,8.30
2017,12,17,16,51,8.30
2017,12,17,16,52,8.30
2017,12,17,16,53,8.30
2017,12,17,16,54,8.30
2017,12,17,16,55,8.30
2017,12,17,16,56,8.20
2017,12,17,16,57,8.20
2017,12,17,16,58,8.20
2017,12,17,16,59,8.20
2017,12,17,17,00,8.30
2017,12,17,17,01,8.30
2017,12,17,17,02,8.30
2017,12,17,17,03,8.30
2017,12,17,17,04,8.30
2017,12,17,17,05,8.30
2017,12,17,17,06,8.30
2017,12,17,17,07,8.30
2017,12,17,17,08,8.30
2017,12,17,17,09,8.40
2017,12,17,17,10,8.40
2017,12,17,17,11,8.40
2017,12,17,17,12,8.40
2017,12,17,17,13,8.40
2017,12,17,17,14,8.50
2017,12,17,17,15,8.50
2017,12,17,17,16,8.40
2017,12,17,17,17,8.40
2017,12,17,17,18,8.40
2017,12,17,17,19,8.40
2017,12,17,17,20,8.50
2017,12,17,17,21,8.50
2017,12,17,17,22,8.50
2017,12,17,17,23,8.60
2017,12,17,17,24,8.60
2017,12,17,17,25,8.60
2017,12,17,17,26,8.60
2017,12,17,17,27,8.70
2017,12,17,17,28,8.70
2017,12,17,17,29,8.80
2017,12,17,17,30,8.80
2017,12,17,17,31,8.90
2017,12,17,17,32,8.90
2017,12,17,17,33,8.90
2017,12,17,17,34,9.00
2017,12,17,17,35,9.00
2017,12,17,17,36,9.00
2017,12,17,17,37,9.00
2017,12,17,17,38,9.00
2017,12,17,17,39,9.00
2017,12,17,17,40,9.00
2017,12,17,17,41,9.00
2017,12,17,17,42,9.00
2017,12,17,17,43,9.10
2017,12,17,17,44,9.10
2017,12,17,17,45,9.20
2017,12,17,17,46,9.20
2017,12,17,17,47,9.30
2017,12,17,17,48,9.30
2017,12,17,17,49,9.20
2017,12,17,17,50,9.20
2017,12,17,17,51,9.10
2017,12,17,17,52,9.10
2017,12,17,17,53,9.00
2017,12,17,17,54,9.00
2017,12,17,17,55,8.90
2017,12,17,17,56,8.90
2017,12,17,17,57,8.80
2017,12,17,17,58,8.80
2017,12,17,17,59,8.80
2017,12,17,18,00,8.80
2017,12,17,18,01,8.80
2017,12,17,18,02,8.80
2017,12,17,18,03,8.80
2017,12,17,18,04,8.80
2017,12,17,18,05,8.80
2017,12,17,18,06,8.70
2017,12,17,18,07,8.70
2017,12,17,18,08,8.70
2017,12,17,18,09,8.70
2017,12,17,18,10,8.70
2017,12,17,18,11,8.70
2017,12,17,18,12,8.70
2017,12,17,18,13,8.70
2017,12,17,18,14,8.80
2017,12,17,18,15,8.80
2017,12,17,18,16,8.80
2017,12,17,18,17,8.80
2017,12,17,18,18,8.80
2017,12,17,18,19,8.80
2017,12,17,18,20,8.80
2017,12,17,18,21,8.80
2017,12,17,18,22,8.80
2017,12,17,18,23,8.80
2017,12,17,18,24,8.80
2017,12,17,18,25,8.70
2017,12,17,18,26,8.70
2017,12,17,18,27,8.70
2017,12,17,18,28,8.70
2017,12,17,18,29,8.60
2017,12,17,18,30,8.60
2017,12,17,18,31,8.60
2017,12,17,18,32,8.60
2017,12,17,18,33,8.50
2017,12,17,18,34,8.50
2017,12,17,18,35,8.50
2017,12,17,18,36,8.40
2017,12,17,18,37,8.50
2017,12,17,18,38,8.50
2017,12,17,18,39,8.50
2017,12,17,18,40,8.50
2017,12,17,18,41,8.50
2017,12,17,18,42,8.50
2017,12,17,18,43,8.50
2017,12,17,18,44,8.50
2017,12,17,18,45,8.50
2017,12,17,18,46,8.40
2017,12,17,18,47,8.40
2017,12,17,18,48,8.40
2017,12,17,18,49,8.40
2017,12,17,18,50,8.40
2017,12,17,18,51,8.50
2017,12,17,18,52,8.50
2017,12,17,18,53,8.50
2017,12,17,18,54,8.50
2017,12,17,18,55,8.50
2017,12,17,18,56,8.40
2017,12,17,18,57,8.40
2017,12,17,18,58,8.50
2017,12,17,18,59,8.50
2017,12,17,19,00,8.60
2017,12,17,19,01,8.60
2017,12,17,19,02,8.60
2017,12,17,19,03,8.60
2017,12,17,19,04,8.60
2017,12,17,19,05,8.60
2017,12,17,19,06,8.60
2017,12,17,19,07,8.60
2017,12,17,19,08,8.60
2017,12,17,19,09,8.60
2017,12,17,19,10,8.60
2017,12,17,19,11,8.60
2017,12,17,19,12,8.60
2017,12,17,19,13,8.60
2017,12,17,19,14,8.60
2017,12,17,19,15,8.60
2017,12,17,19,16,8.60
2017,12,17,19,17,8.60
2017,12,17,19,18,8.60
2017,12,17,19,19,8.60
2017,12,17,19,20,8.60
2017,12,17,19,21,8.60
2017,12,17,19,22,8.60
2017,12,17,19,23,8.70
2017,12,17,19,24,8.70
2017,12,17,19,25,8.70
2017,12,17,19,26,8.70
2017,12,17,19,27,8.70
2017,12,17,19,28,8.70
2017,12,17,19,29,8.70
2017,12,17,19,30,8.70
2017,12,17,19,31,8.70
2017,12,17,19,32,8.80
2017,12,17,19,33,8.80
2017,12,17,19,34,8.80
2017,12,17,19,35,8.80
2017,12,17,19,36,8.80
2017,12,17,19,37,8.80
2017,12,17,19,38,8.80
2017,12,17,19,39,8.90
2017,12,17,19,40,9.00
2017,12,17,19,41,9.10
2017,12,17,19,42,9.10
2017,12,17,19,43,9.10
2017,12,17,19,44,9.10
2017,12,17,19,45,9.10
2017,12,17,19,46,9.10
2017,12,17,19,47,9.10
2017,12,17,19,48,9.10
2017,12,17,19,49,9.10
2017,12,17,19,50,9.10
2017,12,17,19,51,9.10
2017,12,17,19,52,9.10
2017,12,17,19,53,9.10
2017,12,17,19,54,9.10
2017,12,17,19,55,9.10
2017,12,17,19,56,9.10
2017,12,17,19,57,9.10
2017,12,17,19,58,9.10
2017,12,17,19,59,9.10
2017,12,17,20,00,9.10
2017,12,17,20,01,9.10
2017,12,17,20,02,9.10
2017,12,17,20,03,9.10
2017,12,17,20,04,9.10
2017,12,17,20,05,9.10
2017,12,17,20,06,9.10
2017,12,17,20,07,9.20
2017,12,17,20,08,9.20
2017,12,17,20,09,9.20
2017,12,17,20,10,9.20
2017,12,17,20,11,9.20
2017,12,17,20,12,9.20
2017,12,17,20,13,9.10
2017,12,17,20,14,9.10
2017,12,17,20,15,9.10
2017,12,17,20,16,9.10
2017,12,17,20,17,9.10
2017,12,17,20,18,9.10
2017,12,17,20,19,9.10
2017,12,17,20,20,9.10
2017,12,17,20,21,9.10
2017,12,17,20,22,9.10
2017,12,17,20,23,9.00
2017,12,17,20,24,9.00
2017,12,17,20,25,9.00
2017,12,17,20,26,9.00
2017,12,17,20,27,9.00
2017,12,17,20,28,9.00
2017,12,17,20,29,9.00
2017,12,17,20,30,9.00
2017,12,17,20,31,8.90
2017,12,17,20,32,8.90
2017,12,17,20,33,8.90
2017,12,17,20,34,8.90
2017,12,17,20,35,8.90
2017,12,17,20,36,8.90
2017,12,17,20,37,8.90
2017,12,17,20,38,8.90
2017,12,17,20,39,8.80
2017,12,17,20,40,8.80
2017,12,17,20,41,8.80
2017,12,17,20,42,8.80
2017,12,17,20,43,8.80
2017,12,17,20,44,8.80
2017,12,17,20,45,8.80
2017,12,17,20,46,8.80
2017,12,17,20,47,8.70
2017,12,17,20,48,8.70
2017,12,17,20,49,8.70
2017,12,17,20,50,8.70
2017,12,17,20,51,8.70
2017,12,17,20,52,8.70
2017,12,17,20,53,8.70
2017,12,17,20,54,8.70
2017,12,17,20,55,8.60
2017,12,17,20,56,8.60
2017,12,17,20,57,8.60
2017,12,17,20,58,8.60
2017,12,17,20,59,8.60
2017,12,17,21,00,8.60
2017,12,17,21,01,8.60
2017,12,17,21,02,8.60
2017,12,17,21,03,8.60
2017,12,17,21,04,8.50
2017,12,17,21,05,8.50
2017,12,17,21,06,8.50
2017,12,17,21,07,8.50
2017,12,17,21,08,8.50
2017,12,17,21,09,8.50
2017,12,17,21,10,8.50
2017,12,17,21,11,8.50
2017,12,17,21,12,8.50
2017,12,17,21,13,8.40
2017,12,17,21,14,8.40
2017,12,17,21,15,8.40
2017,12,17,21,16,8.40
2017,12,17,21,17,8.40
2017,12,17,21,18,8.40
2017,12,17,21,19,8.30
2017,12,17,21,20,8.30
2017,12,17,21,21,8.30
2017,12,17,21,22,8.30
2017,12,17,21,23,8.30
2017,12,17,21,24,8.30
2017,12,17,21,25,8.30
2017,12,17,21,26,8.30
2017,12,17,21,27,8.30
2017,12,17,21,28,8.30
2017,12,17,21,29,8.30
2017,12,17,21,30,8.30
2017,12,17,21,31,8.30
2017,12,17,21,32,8.30
2017,12,17,21,33,8.30
2017,12,17,21,34,8.30
2017,12,17,21,35,8.30
2017,12,17,21,36,8.20
2017,12,17,21,37,8.20
2017,12,17,21,38,8.20
2017,12,17,21,39,8.20
2017,12,17,21,40,8.20
2017,12,17,21,41,8.20
2017,12,17,21,42,8.20
2017,12,17,21,43,8.20
2017,12,17,21,44,8.20
2017,12,17,21,45,8.20
2017,12,17,21,46,8.20
2017,12,17,21,47,8.20
2017,12,17,21,48,8.20
2017,12,17,21,49,8.20
2017,12,17,21,50,8.20
2017,12,17,21,51,8.20
2017,12,17,21,52,8.20
2017,12,17,21,53,8.20
2017,12,17,21,54,8.20
2017,12,17,21,55,8.20
2017,12,17,21,56,8.20
2017,12,17,21,57,8.20
2017,12,17,21,58,8.20
2017,12,17,21,59,8.20
2017,12,17,22,00,8.20
2017,12,17,22,01,8.20
2017,12,17,22,02,8.20
2017,12,17,22,03,8.20
2017,12,17,22,04,8.20
2017,12,17,22,05,8.20
2017,12,17,22,06,8.20
2017,12,17,22,07,8.20
2017,12,17,22,08,8.20
2017,12,17,22,09,8.20
2017,12,17,22,10,8.20
2017,12,17,22,11,8.20
2017,12,17,22,12,8.20
2017,12,17,22,13,8.20
2017,12,17,22,14,8.20
2017,12,17,22,15,8.20
2017,12,17,22,16,8.20
2017,12,17,22,17,8.20
2017,12,17,22,18,8.20
2017,12,17,22,19,8.20
2017,12,17,22,20,8.20
2017,12,17,22,21,8.20
2017,12,17,22,22,8.20
2017,12,17,22,23,8.20
2017,12,17,22,24,8.20
2017,12,17,22,25,8.20
2017,12,17,22,26,8.20
2017,12,17,22,27,8.10
2017,12,17,22,28,8.10
2017,12,17,22,29,8.10
2017,12,17,22,30,8.10
2017,12,17,22,31,8.10
2017,12,17,22,32,8.10
2017,12,17,22,33,8.20
2017,12,17,22,34,8.20
2017,12,17,22,35,8.20
2017,12,17,22,36,8.20
2017,12,17,22,37,8.20
2017,12,17,22,38,8.20
2017,12,17,22,39,8.20
2017,12,17,22,40,8.20
2017,12,17,22,41,8.20
2017,12,17,22,42,8.20
2017,12,17,22,43,8.20
2017,12,17,22,44,8.20
2017,12,17,22,45,8.20
2017,12,17,22,46,8.20
2017,12,17,22,47,8.30
2017,12,17,22,48,8.30
2017,12,17,22,49,8.20
2017,12,17,22,50,8.20
2017,12,17,22,51,8.20
2017,12,17,22,52,8.20
2017,12,17,22,53,8.20
2017,12,17,22,54,8.20
2017,12,17,22,55,8.20
2017,12,17,22,56,8.10
2017,12,17,22,57,8.10
2017,12,17,22,58,8.10
2017,12,17,22,59,8.00
2017,12,17,23,00,8.00
2017,12,17,23,01,8.00
2017,12,17,23,02,8.00
2017,12,17,23,03,8.00
2017,12,17,23,04,8.00
2017,12,17,23,05,8.00
2017,12,17,23,06,8.00
2017,12,17,23,07,8.10
2017,12,17,23,08,8.10
2017,12,17,23,09,8.10
2017,12,17,23,10,8.10
2017,12,17,23,11,8.10
2017,12,17,23,12,8.10
2017,12,17,23,13,8.10
2017,12,17,23,14,8.10
2017,12,17,23,15,8.10
2017,12,17,23,16,8.10
2017,12,17,23,17,8.00
2017,12,17,23,18,8.00
2017,12,17,23,19,8.00
2017,12,17,23,20,8.00
2017,12,17,23,21,7.90
2017,12,17,23,22,7.90
2017,12,17,23,23,7.90
2017,12,17,23,24,7.90
2017,12,17,23,25,7.90
2017,12,17,23,26,7.90
2017,12,17,23,27,7.90
2017,12,17,23,28,7.90
2017,12,17,23,29,8.00
2017,12,17,23,30,8.00
2017,12,17,23,31,8.00
2017,12,17,23,32,8.10
2017,12,17,23,33,8.10
2017,12,17,23,34,8.10
2017,12,17,23,35,8.10
2017,12,17,23,36,8.10
2017,12,17,23,37,8.10
2017,12,17,23,38,8.10
2017,12,17,23,39,8.10
2017,12,17,23,40,8.10
2017,12,17,23,41,8.10
2017,12,17,23,42,8.10
2017,12,17,23,43,8.10
2017,12,17,23,44,8.20
2017,12,17,23,45,8.20
2017,12,17,23,46,8.20
